DL1NER Weather Reports


time (UTC)temp
C
wind
direction
speed
KPH
gust
KPH
rain 1hr
cm
rain 24hr
cm
rain mn
cm
humidity
%
barometer
mb
20260902093012 19 79 1.6 6.4 0.00 0.00 0.00 74 1021.7
20260902092011 18 79 3.2 6.4 0.00 0.00 0.00 75 1021.7
20260902091011 18 79 3.2 6.4 0.00 0.00 0.00 74 1021.7
20260902090011 18 78 4.8 6.4 0.00 0.00 0.00 74 1021.7
20260902085011 18 82 4.8 8.0 0.00 0.00 0.00 76 1021.6
20260902084011 17 80 3.2 6.4 0.00 0.00 0.00 77 1021.6
20260902083011 17 80 3.2 6.4 0.00 0.00 0.00 78 1021.5
20260902082012 17 80 3.2 4.8 0.00 0.00 0.00 80 1021.6
20260902081011 16 80 3.2 6.4 0.00 0.00 0.00 83 1021.4
20260902080011 16 81 3.2 6.4 0.00 0.00 0.00 84 1021.4
20260902075011 16 80 3.2 6.4 0.00 0.00 0.00 83 1021.4
20260902074012 15 80 3.2 6.4 0.00 0.00 0.00 85 1021.3
20260902073011 15 80 3.2 6.4 0.00 0.00 0.00 85 1021.2
20260902072012 15 80 3.2 6.4 0.00 0.00 0.00 86 1021.1
20260902071011 14 80 3.2 6.4 0.00 0.00 0.00 87 1021.2
20260902070011 13 80 3.2 6.4 0.00 0.00 0.00 88 1021.2
20260902065011 13 79 3.2 4.8 0.00 0.00 0.00 88 1021.3
20260902064011 13 78 1.6 4.8 0.00 0.00 0.00 90 1021.1
20260902063011 12 78 1.6 6.4 0.00 0.00 0.00 91 1021.2
20260902062011 12 78 3.2 6.4 0.00 0.00 0.00 92 1021.2
20260902061011 12 75 3.2 6.4 0.00 0.00 0.00 92 1021.1
20260902060011 11 69 3.2 6.4 0.00 0.00 0.00 92 1021.1
20260902055012 11 68 3.2 6.4 0.00 0.00 0.00 92 1021.2
20260902054012 11 67 0.0 3.2 0.00 0.00 0.00 92 1021.3
20260902053011 10 67 0.0 1.6 0.00 0.00 0.00 92 1021.2
20260902052011 10 222 0.0 0.0 0.00 0.00 0.00 92 1021.2
20260902051010 10 222 0.0 0.0 0.00 0.00 0.00 91 1021.2
20260902050011 10 259 0.0 0.0 0.00 0.00 0.00 91 1021.2
20260902045011 10 259 0.0 0.0 0.00 0.00 0.00 91 1021.1
20260902044011 10 259 0.0 0.0 0.00 0.00 0.00 91 1021.1
20260902043020 10 259 0.0 0.0 0.00 0.00 0.00 90 1021.1
20260902042010 10 259 0.0 0.0 0.00 0.00 0.00 89 1021.1
20260902041010 10 259 0.0 0.0 0.00 0.00 0.00 89 1021.1
20260902040011 10 259 0.0 0.0 0.00 0.00 0.00 89 1021.1
20260902035015 10 259 0.0 0.0 0.00 0.00 0.00 89 1021.1
20260902034014 10 259 0.0 0.0 0.00 0.00 0.00 89 1021.2
20260902033014 10 259 0.0 0.0 0.00 0.00 0.00 89 1021.2
20260902032015 10 259 0.0 0.0 0.00 0.00 0.00 88 1021.1
20260902031015 10 259 0.0 0.0 0.00 0.00 0.00 88 1021.1
20260902030014 11 259 0.0 0.0 0.00 0.00 0.00 88 1021.2
20260902025014 11 259 0.0 0.0 0.00 0.00 0.00 88 1021.2
20260902024014 11 259 0.0 0.0 0.00 0.00 0.00 88 1021.3
20260902023014 11 259 0.0 0.0 0.00 0.00 0.00 86 1021.2
20260902022014 11 259 0.0 0.0 0.00 0.00 0.00 85 1021.3
20260902021014 11 259 0.0 0.0 0.00 0.00 0.00 85 1021.4
20260902020014 11 259 0.0 0.0 0.00 0.00 0.00 85 1021.3
20260902015014 11 259 0.0 0.0 0.00 0.00 0.00 85 1021.4
20260902014014 11 259 0.0 0.0 0.00 0.00 0.00 84 1021.3
20260902013013 11 259 0.0 0.0 0.00 0.00 0.00 83 1021.3
20260902012014 11 259 0.0 0.0 0.00 0.00 0.00 83 1021.3
20260902011014 11 259 0.0 0.0 0.00 0.00 0.00 81 1021.2
20260902010014 11 259 0.0 0.0 0.00 0.00 0.00 81 1021.4
20260902005013 11 259 0.0 0.0 0.00 0.00 0.00 79 1021.3
20260902004013 11 259 0.0 0.0 0.00 0.00 0.00 77 1021.3
20260902003013 11 259 0.0 0.0 0.00 0.00 0.00 77 1021.3
20260902002013 12 259 0.0 0.0 0.00 0.00 0.00 76 1021.3
20260902001013 12 259 0.0 0.0 0.00 0.00 0.00 76 1021.4
20260902000013 12 259 0.0 0.0 0.00 0.00 0.00 75 1021.4
20260901235013 12 259 0.0 0.0 0.00 0.00 0.00 75 1021.4
20260901234013 12 259 0.0 0.0 0.00 0.00 0.00 75 1021.3
20260901233013 12 259 0.0 0.0 0.00 0.00 0.00 74 1021.3
20260901232013 12 259 0.0 0.0 0.00 0.00 0.00 74 1021.3
20260901231013 13 259 0.0 0.0 0.00 0.00 0.00 73 1021.3
20260901230013 13 259 0.0 0.0 0.00 0.00 0.00 73 1021.3
20260901225013 13 259 0.0 0.0 0.00 0.00 0.00 73 1021.4
20260901224013 13 259 0.0 0.0 0.00 0.00 0.00 72 1021.3
20260901223013 13 259 0.0 0.0 0.00 0.00 0.00 72 1021.2
20260901222012 13 259 0.0 0.0 0.00 0.00 0.00 71 1021.2
20260901221013 13 259 0.0 0.0 0.00 0.00 0.00 71 1021.3
20260901220013 13 259 0.0 0.0 0.00 0.00 0.00 71 1021.2
20260901215013 13 259 0.0 0.0 0.00 0.00 0.00 71 1021.3
20260901214012 14 259 0.0 0.0 0.00 0.00 0.00 70 1021.2
20260901213012 14 259 0.0 0.0 0.00 0.00 0.00 69 1021.2
20260901212012 14 259 0.0 0.0 0.00 0.00 0.00 69 1021.3
20260901211012 15 259 0.0 0.0 0.00 0.00 0.00 69 1021.2
20260901210012 15 259 0.0 0.0 0.00 0.00 0.00 69 1021.2
20260901205013 15 259 0.0 1.6 0.00 0.00 0.00 68 1021.2
20260901204012 15 259 1.6 4.8 0.00 0.00 0.00 68 1021.1
20260901203012 15 259 0.0 0.0 0.00 0.00 0.00 67 1021.1
20260901202012 15 259 0.0 0.0 0.00 0.00 0.00 67 1021.1
20260901201012 15 259 0.0 0.0 0.00 0.00 0.00 67 1021.1
20260901200013 16 259 0.0 0.0 0.00 0.00 0.00 66 1021.1
20260901195013 16 259 1.6 4.8 0.00 0.00 0.00 65 1021.0
20260901194012 16 259 3.2 6.4 0.00 0.00 0.00 63 1021.0
20260901193013 17 259 3.2 4.8 0.00 0.00 0.00 62 1020.9
20260901192011 17 259 0.0 3.2 0.00 0.00 0.00 61 1020.8
20260901191012 17 259 0.0 4.8 0.00 0.00 0.00 60 1020.8
20260901190011 17 259 1.6 3.2 0.00 0.00 0.00 59 1020.5
20260901185013 17 259 1.6 3.2 0.00 0.00 0.00 59 1020.5
20260901184012 18 259 0.0 0.0 0.00 0.00 0.00 60 1020.5
20260901183011 18 259 0.0 0.0 0.00 0.00 0.00 57 1020.4
20260901182012 18 259 0.0 0.0 0.00 0.00 0.00 56 1020.4
20260901181012 18 259 1.6 3.2 0.00 0.00 0.00 55 1020.2
20260901180011 18 259 1.6 3.2 0.00 0.00 0.00 55 1020.3
20260901175012 19 259 1.6 3.2 0.00 0.00 0.00 54 1020.1
20260901174017 20 259 3.2 6.4 0.00 0.00 0.00 54 1020.0
20260901173013 20 259 3.2 6.4 0.00 0.00 0.00 54 1019.9
20260901171012 20 250 4.8 9.7 0.00 0.00 0.00 53 1019.7
20260901170012 21 300 4.8 11.3 0.00 0.00 0.00 53 1019.9
20260901165012 21 258 6.4 14.5 0.00 0.00 0.00 53 1019.9
20260901164012 21 270 6.4 17.7 0.00 0.00 0.00 52 1019.9
20260901163012 21 275 8.0 17.7 0.00 0.00 0.00 53 1020.0
20260901162013 21 273 4.8 11.3 0.00 0.00 0.00 53 1020.0
20260901161012 21 298 4.8 11.3 0.00 0.00 0.00 53 1020.1
20260901160012 21 271 6.4 16.1 0.00 0.00 0.00 53 1020.2
20260901155012 22 286 4.8 12.9 0.00 0.00 0.00 53 1020.1
20260901154012 22 269 6.4 14.5 0.00 0.00 0.00 51 1020.0
20260901153012 22 314 4.8 11.3 0.00 0.00 0.00 53 1020.0
20260901152012 21 317 4.8 11.3 0.00 0.00 0.00 53 1020.1
20260901151012 22 311 4.8 12.9 0.00 0.00 0.00 52 1020.1
20260901150013 22 298 6.4 14.5 0.00 0.00 0.00 52 1020.0
20260901145012 22 340 4.8 14.5 0.00 0.00 0.00 51 1020.0
20260901144012 22 293 1.6 6.4 0.00 0.00 0.00 51 1020.0
20260901143012 21 293 4.8 11.3 0.00 0.00 0.00 51 1020.0
20260901142012 21 257 3.2 12.9 0.00 0.00 0.00 53 1020.3
20260901141012 21 220 3.2 8.0 0.00 0.00 0.00 53 1020.3
20260901140012 21 260 3.2 8.0 0.00 0.00 0.00 54 1020.4
20260901135012 21 259 6.4 12.9 0.00 0.00 0.00 54 1020.5
20260901134012 22 259 3.2 11.3 0.00 0.00 0.00 54 1020.5
20260901133011 22 288 6.4 16.1 0.00 0.00 0.00 53 1020.6
20260901132012 22 273 6.4 14.5 0.00 0.00 0.00 52 1020.5
20260901131012 23 208 6.4 17.7 0.00 0.00 0.00 52 1020.5
20260901130011 23 286 4.8 12.9 0.00 0.00 0.00 52 1020.6
20260901125012 23 232 9.7 16.1 0.00 0.00 0.00 49 1020.7
20260901124011 23 199 8.0 17.7 0.00 0.00 0.00 50 1020.7
20260901123013 23 216 8.0 19.3 0.00 0.00 0.00 50 1020.7
20260901122011 22 265 6.4 16.1 0.00 0.00 0.00 52 1020.7
20260901121012 22 261 4.8 12.9 0.00 0.00 0.00 53 1020.9
20260901120012 22 212 6.4 19.3 0.00 0.00 0.00 55 1021.0
20260901115011 21 170 6.4 17.7 0.00 0.00 0.00 54 1021.0
20260901114012 22 250 8.0 19.3 0.00 0.00 0.00 54 1021.0
20260901113012 21 263 6.4 16.1 0.00 0.00 0.00 56 1021.1
20260901112011 21 217 9.7 17.7 0.00 0.00 0.00 56 1021.1
20260901111012 21 269 8.0 19.3 0.00 0.00 0.00 54 1021.2
20260901105011 21 232 9.7 22.5 0.00 0.00 0.00 52 1021.2
20260901104012 21 232 9.7 22.5 0.00 0.00 0.00 52 1021.2
20260901103010 21 221 11.3 25.7 0.00 0.00 0.00 56 1021.1
20260901102012 21 264 11.3 22.5 0.00 0.00 0.00 55 1021.2
20260901101010 21 275 8.0 25.7 0.00 0.00 0.00 55 1021.1
20260901100011 21 274 11.3 22.5 0.00 0.00 0.00 59 1021.2
20260901095010 20 272 9.7 24.1 0.00 0.00 0.00 56 1021.2
20260901094011 20 256 9.7 27.4 0.00 0.00 0.00 59 1021.2